Погода в Снежном

Россия / Ханты-Мансийский автономный округ - Югра     61°16′08″N   73°17′12″E
темп.,
°C
ветер,
м/с
пор.,
м/с
влажн.,
%
обл.,
%
осадки,
мм/ч
давл.,
гПа
погр.,
м
15 апреля, чт
чт1523:00+3ююз41099100 0.2 1020234
02:00+5ююз6159992 0.0 1016351
05:00+5юз6169597 0.0 1014374
08:00+6юз61510095 0.0 1012377
11:00+11зюз7178967 0.0 1010544
14:00+14зюз8177031 0.0 10081158
17:00+11з81575100 0.0 1009858
20:00+1с41096100 0.9 1012436
16 апреля, пт
пт1623:00+1зсз2598100 3.0 1013208
02:00+1зсз3894100 0.1 1013358
05:00−1сз51288100 0.1 1015660
08:00−3с797899 0.1 10181043
11:00−4с7958100 0.1 10231353
14:00−4с68430 0.0 10251257
17:00−4с45420 0.0 1026987
20:00−5ю11635 0.0 102612
17 апреля, сб
сб1723:00−4юз3754100 0.0 1024409
02:00−3юз61349100 0.0 1020657
05:00−3зюз71585100 0.4 1018884
08:00−1сз8125717 0.9 10181309
11:00−2сз7948100 0.9 10191401
14:00−2ссз6739100 0.0 10201353
17:00−3с4541100 0.0 10191181
20:00−5св345483 0.0 1018527
18 апреля, вс
вс1823:00−6в4655100 0.0 1016649
02:00−7в5856100 0.0 1015727
05:00−9всв71162100 0.0 1015742
08:00−9св71151100 0.0 1017796
11:00−8св81141100 0.0 10191074
14:00−7ссв8113994 0.0 10211443
17:00−7ссв71144100 0.0 10231740
20:00−9с71054100 0.0 10251698
19 апреля, пн
пн1923:00−9с61055100 0.1 10261510
02:00−10с6106035 0.0 10281179
05:00−11с5106847 0.0 1029969
08:00−10с6959100 0.0 10311148
11:00−7с6749100 0.0 10311346
14:00−6с6847100 0.0 10301707
17:00−6с5749100 0.1 10301587
20:00−7с48595 0.0 1031659